Theta_e
307 308 308 308 307 307 307 309 309 310 312 312 312 312 312 311 312 312 316 315 316 318 317 318 319 318 318 317 321 324 328 332 334 334 335 331 332 330 337 345 344 342 344 344 345
307 308 308 308 307 307 308 309 309 311 312 312 312 312 312 310 311 315 316 316 319 319 319 318 315 316 315 317 320 322 323 331 332 333 333 330 333 338 343 345 346 345 344 345 344
308 308 308 307 307 307 309 309 310 311 312 312 312 312 311 311 320 323 318 318 320 318 318 318 318 319 319 317 318 321 321 328 332 333 327 325 327 333 342 346 346 347 345 342 338
307 307 307 307 307 308 309 309 310 311 312 312 312 311 311 317 319 322 323 320 319 318 318 319 318 320 318 318 318 324 320 325 330 328 326 327 326 330 331 339 343 343 343 338 336
306 307 307 307 307 308 309 309 310 311 312 312 311 310 313 321 322 322 318 318 318 318 318 318 319 319 320 319 320 321 322 321 322 321 326 329 330 330 329 337 340 341 341 338 338
306 307 307 306 307 309 309 310 310 311 311 311 311 310 319 319 323 322 319 319 319 319 319 317 318 319 320 320 319 322 321 322 322 323 326 331 333 331 330 332 341 341 338 337 337
306 306 306 307 309 309 310 310 311 311 311 311 310 312 319 318 323 320 321 323 323 321 320 321 321 321 320 320 320 322 321 318 321 324 326 328 332 332 329 330 338 340 336 339 338
307 308 308 309 309 310 310 310 311 311 311 311 311 314 315 322 326 324 321 322 323 323 322 324 322 318 322 320 318 320 319 320 319 326 328 324 325 325 329 330 336 337 337 336 334
308 308 309 309 309 310 310 310 311 311 311 312 313 318 321 325 322 323 323 322 323 324 322 324 323 320 318 318 317 317 320 320 325 324 328 325 326 329 328 329 339 339 336 333 331
309 308 309 309 310 310 310 310 311 312 315 319 318 319 320 323 322 323 323 323 322 321 320 321 316 317 315 316 320 321 322 323 323 322 322 322 323 323 328 329 340 339 335 334 335
309 309 309 309 309 309 309 313 317 315 318 317 318 320 322 324 323 324 323 323 322 319 319 319 319 318 318 318 320 323 324 325 325 322 322 322 324 322 323 326 340 339 335 334 333
310 308 308 308 308 308 309 313 318 322 324 319 317 319 321 322 321 321 323 321 321 319 320 319 320 319 321 322 324 324 323 323 324 323 321 320 320 323 324 325 336 338 335 334 333
311 309 308 308 308 312 313 315 316 318 320 322 319 319 319 322 321 321 319 320 321 321 321 321 322 325 325 324 324 323 324 324 324 322 321 320 320 328 328 327 337 337 336 334 334
310 310 308 309 312 317 318 320 321 318 319 322 323 322 322 321 322 322 323 323 323 324 324 321 324 323 324 326 323 325 325 326 326 324 324 321 322 328 327 325 328 336 335 334 333
310 311 310 310 314 315 324 323 322 321 325 328 323 324 321 321 323 324 325 323 324 324 326 325 324 325 325 326 326 325 326 326 326 325 322 322 321 323 324 326 325 323 331 332 331
310 311 312 312 314 322 321 321 321 320 324 323 320 321 321 321 322 324 324 323 323 326 325 325 323 324 324 325 324 325 323 321 322 319 322 322 326 326 324 327 324 323 325 335 332
311 312 313 313 318 320 321 320 320 322 322 323 321 321 320 321 322 325 325 324 323 326 327 327 325 326 325 325 323 322 322 325 328 327 325 321 326 323 323 322 322 321 329 332 330
311 314 321 315 318 319 321 318 323 325 325 323 322 320 319 320 322 325 325 325 326 326 329 331 328 328 327 325 325 325 322 324 328 326 323 323 329 324 322 321 321 320 323 329 328
311 314 317 317 316 320 317 322 324 327 329 330 322 320 319 319 324 325 325 326 328 326 330 331 331 327 327 327 324 327 325 321 321 325 324 325 326 324 322 323 322 321 321 320 320
311 319 320 321 320 320 318 322 326 328 328 328 327 328 330 332 325 323 324 327 329 328 325 328 329 330 330 327 327 326 325 326 322 330 328 325 328 327 326 325 323 321 319 318 317
318 320 324 323 319 318 321 324 325 325 326 327 327 329 331 332 330 325 333 331 331 326 324 326 325 327 329 331 330 329 325 323 321 323 326 329 327 324 324 322 321 320 319 318 318
318 318 324 324 316 317 319 323 323 324 323 324 325 326 330 329 332 335 335 333 333 328 329 331 327 329 327 327 328 327 326 321 323 322 325 323 325 321 321 321 321 321 319 319 316
311 318 323 322 319 318 318 325 325 327 326 325 325 326 327 327 331 336 333 331 336 335 334 331 325 329 329 324 326 328 327 323 320 319 323 325 325 323 322 322 321 319 318 317 315
313 320 317 318 318 320 325 322 327 327 326 325 325 326 328 329 330 334 331 332 332 327 332 328 328 327 328 325 329 328 327 326 323 324 323 326 326 325 323 321 320 319 316 315 315
313 315 321 323 324 325 323 323 325 328 325 323 324 325 327 329 331 333 332 332 328 325 329 327 329 332 330 329 326 325 325 325 324 322 324 323 323 324 322 320 319 318 316 316 316
310 317 317 320 324 326 324 325 324 326 328 329 324 324 326 330 333 335 330 330 330 326 330 325 329 330 329 329 330 330 328 326 325 326 326 324 326 323 321 319 319 318 318 318 317
321 323 318 319 321 320 322 324 323 323 326 329 326 331 331 332 330 328 329 326 329 325 329 328 329 329 330 329 330 328 329 328 327 326 324 326 326 323 322 323 319 319 319 319 318
Wind_Speed
6 7 7 7 8 7 6 6 7 7 8 11 13 16 19 23 26 24 10 16 8 7 14 18 20 20 21 2 4 5 4 4 5 8 6 5 7 4 3 17 7 5 7 19 25
7 8 7 8 8 7 7 7 7 8 9 12 14 17 21 25 29 16 16 13 11 9 10 14 9 11 5 5 1 3 3 10 6 5 6 6 15 14 8 11 8 16 13 26 23
8 9 8 9 8 7 7 7 8 8 10 13 15 19 22 26 5 7 5 14 11 10 10 10 10 3 5 4 3 4 6 9 7 6 9 7 9 6 16 10 22 22 21 17 25
9 10 9 9 8 7 8 8 8 9 11 13 16 20 26 5 2 4 4 9 13 10 6 4 5 4 4 5 3 3 7 7 4 5 7 9 7 8 6 8 20 23 22 24 21
10 9 9 9 8 8 8 9 9 10 11 14 16 20 11 3 9 4 7 9 11 7 6 1 2 3 4 5 8 4 2 4 6 9 6 9 8 8 7 19 18 20 22 24 23
10 9 9 9 8 8 9 10 10 11 12 14 16 18 4 5 6 8 9 10 10 11 8 9 7 6 6 7 4 4 5 3 2 7 4 9 3 3 6 12 20 20 23 21 23
8 9 8 8 9 9 10 11 11 12 13 15 15 12 2 12 7 13 11 11 10 15 5 18 15 3 3 6 4 1 5 6 2 1 4 12 3 5 6 15 19 16 21 20 24
8 8 8 8 9 10 11 12 12 13 15 15 14 6 7 10 12 16 17 16 17 20 22 28 16 7 3 2 9 6 4 3 7 8 3 7 5 8 10 10 15 19 15 17 13
8 8 9 8 9 10 12 13 13 15 14 16 7 2 9 13 7 13 15 16 14 19 19 15 4 2 6 6 8 7 3 5 3 4 5 5 2 3 5 10 16 15 15 12 5
8 8 8 8 8 10 11 14 11 15 1 2 2 3 7 4 7 11 10 7 5 3 7 7 6 4 5 6 3 5 4 5 7 7 8 6 3 3 5 9 17 14 12 11 9
5 7 7 7 7 8 10 4 4 3 3 8 4 5 4 12 11 6 4 7 4 6 2 5 6 4 9 7 5 6 7 7 3 6 5 1 3 6 8 13 17 14 12 12 13
2 4 5 6 6 6 6 1 6 2 6 11 11 8 21 13 6 5 5 2 2 5 4 6 5 10 8 5 8 8 8 6 3 3 4 5 7 5 7 7 15 16 14 13 6
8 2 3 4 4 6 10 17 5 8 1 7 7 5 6 7 7 8 9 5 5 4 5 6 8 4 3 6 8 4 6 1 3 5 3 5 6 4 5 10 10 6 10 12 16
15 5 2 3 3 2 8 8 18 3 4 6 4 7 4 4 3 10 7 4 2 3 5 5 4 7 8 5 4 4 3 3 5 5 3 4 2 3 4 7 9 8 9 10 11
17 9 3 6 5 4 5 26 22 4 2 5 5 4 5 8 3 4 3 5 0 5 4 6 4 7 7 2 2 3 3 3 3 3 4 2 5 6 2 6 5 7 11 10 10
18 12 5 5 8 10 21 24 1 5 5 4 7 7 4 1 2 2 2 2 1 3 2 4 5 5 5 5 5 2 6 8 5 3 3 4 4 3 2 3 2 6 7 9 6
19 14 6 7 4 16 25 6 5 3 5 3 5 5 5 5 4 6 4 1 3 4 6 6 4 1 5 5 7 11 8 5 6 6 4 4 5 5 3 5 7 8 7 7 6
20 12 8 11 13 15 12 5 2 5 6 5 5 5 8 5 3 8 5 1 3 4 4 3 4 3 3 5 3 4 6 5 0 2 5 6 3 4 6 5 7 8 7 6 7
19 10 9 9 8 7 6 4 5 5 5 7 4 5 5 5 6 4 7 7 2 5 6 3 2 3 5 3 6 4 3 5 5 2 2 3 2 5 6 7 7 7 7 6 7
14 9 11 7 5 4 5 4 5 3 8 3 5 2 6 5 3 7 6 2 6 4 8 2 2 3 3 7 3 4 2 4 4 1 2 5 3 4 6 7 5 6 8 8 7
5 4 4 6 8 5 2 6 5 7 10 3 3 4 3 3 2 3 4 4 5 3 7 5 4 6 4 2 4 4 3 5 4 4 3 2 5 6 8 8 7 7 7 7 6
5 2 6 15 4 1 3 4 6 8 19 2 3 4 4 5 6 3 4 2 7 4 4 2 5 2 2 4 2 4 5 5 5 6 1 4 6 6 8 9 8 6 5 2 7
2 3 4 5 3 2 5 4 4 6 8 3 4 6 4 2 4 3 2 3 8 4 6 3 2 3 7 7 5 5 1 3 4 3 5 5 6 1 6 6 5 9 7 7 8
2 2 4 4 2 6 1 5 4 9 4 4 3 7 7 6 2 2 2 5 4 4 6 7 3 6 7 6 2 4 4 4 5 4 3 5 7 5 6 8 6 5 7 8 8
2 3 3 3 4 3 3 3 5 4 4 3 1 3 2 2 6 3 3 2 6 4 4 5 3 1 2 2 2 3 5 6 3 6 5 7 7 6 8 8 7 6 8 8 7
1 2 4 3 3 3 2 3 6 5 3 5 2 2 7 5 1 3 6 3 4 3 3 3 2 2 4 5 7 5 7 7 5 3 2 8 4 4 2 5 4 8 8 7 7
3 4 3 3 3 2 3 3 6 2 4 1 5 5 5 3 3 4 5 5 8 8 4 4 4 3 3 4 5 4 5 6 2 6 3 4 2 2 3 4 6 6 7 7 7
Wind_Direction
258 267 277 284 285 288 287 287 292 299 310 318 326 330 327 323 317 311 253 245 254 273 265 283 299 309 325 227 165 126 91 255 235 149 206 238 134 195 124 138 182 201 120 160 165
257 267 275 280 282 283 281 282 290 297 307 316 325 326 326 323 318 278 259 243 256 266 225 253 294 340 322 314 16 106 161 219 220 166 169 220 129 129 131 134 111 111 122 148 160
261 267 274 279 278 277 276 281 286 295 307 318 323 327 326 321 319 253 219 214 223 219 229 278 297 13 325 20 226 194 233 181 232 163 177 190 140 121 124 142 149 146 145 148 83
263 267 274 276 277 273 275 279 285 295 307 317 322 328 327 326 293 303 243 204 206 230 263 302 28 18 331 300 170 311 266 177 206 225 140 165 140 144 160 168 155 152 146 102 90
260 265 271 274 273 271 276 280 285 295 304 313 325 331 333 311 252 250 175 184 207 221 233 165 313 183 238 266 334 208 76 163 151 83 124 128 154 165 121 147 157 151 119 118 121
259 262 266 269 269 273 277 280 284 292 301 311 324 335 342 304 326 207 191 196 210 215 219 179 220 187 273 252 143 226 113 157 209 118 140 128 120 94 223 145 161 153 129 136 145
257 259 261 262 268 274 279 281 286 292 300 308 319 336 287 241 242 220 211 235 233 230 243 247 254 160 256 311 276 31 18 2 291 141 117 110 67 232 176 163 164 130 144 151 159
257 257 258 263 271 280 281 284 288 293 297 305 311 309 252 280 302 246 238 252 258 254 243 274 255 194 217 301 5 13 56 337 277 170 153 96 262 259 208 155 124 140 147 154 168
260 256 259 266 275 282 287 290 291 291 301 296 301 156 274 318 260 247 250 244 274 274 239 274 350 23 12 49 3 6 256 315 296 347 117 81 278 255 232 144 136 142 142 139 127
259 254 256 264 275 285 296 298 296 295 299 360 228 331 283 242 250 261 280 252 244 332 356 30 45 16 16 54 251 267 20 16 59 329 37 28 284 231 217 65 136 133 140 153 173
260 247 249 260 275 300 321 332 12 338 153 207 203 226 260 307 221 246 277 313 339 35 311 352 53 275 273 228 204 113 73 71 19 356 80 8 278 328 104 101 137 144 159 174 186
330 257 251 260 279 299 310 215 213 132 310 236 232 253 269 269 281 276 231 142 150 245 10 7 282 240 239 214 83 70 58 358 270 30 87 359 8 34 47 114 147 155 175 179 173
12 314 261 267 290 284 249 239 186 348 6 292 208 218 233 169 231 263 153 193 235 281 269 169 236 217 90 34 81 57 93 51 220 340 340 60 27 44 35 93 115 155 176 175 184
16 352 280 251 276 276 255 288 316 260 53 275 220 264 237 159 292 234 195 153 14 266 274 208 237 85 77 69 118 47 310 25 347 39 284 86 256 334 53 57 118 150 180 189 194
11 1 282 238 295 261 321 328 335 143 5 249 199 249 207 150 185 5 113 46 29 286 65 281 96 95 81 141 87 252 8 328 296 236 66 31 78 279 333 49 29 129 191 194 193
358 359 301 265 263 276 331 337 99 53 256 261 165 188 116 181 308 136 87 81 227 304 9 200 157 102 153 41 67 348 15 22 33 79 45 345 132 303 298 167 45 51 101 162 165
351 341 297 238 248 322 335 32 53 144 303 229 175 135 158 212 177 169 177 179 129 35 357 3 353 54 87 50 21 52 46 354 9 11 237 338 65 218 231 172 138 123 123 160 178
343 334 312 263 284 317 346 53 142 247 241 255 201 170 172 204 226 187 134 223 236 112 79 103 8 7 10 116 107 72 117 138 299 298 282 337 89 232 222 92 73 82 138 161 162
343 331 302 283 279 319 63 64 217 230 307 341 135 144 239 213 161 151 174 182 240 142 123 100 12 5 119 85 106 322 24 180 113 11 31 287 359 5 59 69 72 68 60 97 150
342 330 285 271 224 53 74 226 256 265 315 12 63 65 57 319 188 148 190 189 159 177 128 192 78 38 351 61 26 128 177 26 16 311 313 312 224 223 181 173 133 105 111 93 106
351 15 291 153 140 56 162 232 296 299 354 55 50 67 45 356 330 139 9 32 359 114 97 112 102 291 43 35 211 0 20 61 111 130 165 313 276 218 198 180 155 144 134 156 151
358 7 5 155 68 67 194 219 328 313 320 329 84 59 94 7 358 55 123 109 341 149 103 56 133 142 193 278 186 164 173 126 117 269 183 155 274 294 187 177 149 145 184 192 83
14 266 352 183 149 269 287 293 263 284 277 26 19 41 32 22 33 33 60 354 64 58 148 186 30 46 353 351 351 49 344 121 119 79 205 141 264 333 67 99 153 132 139 96 117
43 356 321 41 118 153 227 286 273 321 246 83 15 35 30 10 143 179 78 22 48 76 79 82 112 152 187 205 190 327 313 305 123 122 220 218 250 187 184 164 174 176 120 132 138
67 263 211 311 341 309 192 266 317 329 313 144 100 153 150 316 351 107 119 76 16 11 58 89 108 94 181 295 356 291 286 302 289 215 157 252 194 184 193 191 198 158 147 117 118
100 50 348 296 299 334 112 233 229 285 249 324 240 271 92 105 110 334 133 147 184 13 83 28 198 85 341 339 5 316 326 327 282 237 22 71 122 244 69 103 100 139 126 129 140
337 330 113 277 320 56 245 308 299 337 277 124 196 106 87 176 215 227 226 173 172 147 144 123 122 84 279 331 341 2 331 300 3 27 127 82 280 71 99 117 131 141 142 157 177